Find Starlink 32143

NORAD ID: 60296 Int'l Des: 2024-132 Owner: SPXS Country: US Constellation: starlink operational
LEOCIRCULAR

Current View

Loading 3D Globe...

About Starlink 32143

Starlink 32143 (NORAD 60296) is a starlink constellation satellite (v2 mini) launched Jul 28, 2024 by SPXS of US. It operates in LEO, CIRCULAR orbit with a mass of 730.00 kg.

Upcoming Passes

Passes for default location (London). Set your location on the main map for personalized predictions.

Altitude History

Loading altitude history...

Two-Line Element Set

1 60296U 24132U 26237.71466612 .00000971 00000-0 43024-4 0 9992
2 60296 53.1619 346.2857 0000936 82.6005 277.5102 15.31708639117459
Epoch: Aug 25, 2026 • Age: 16 hours

Current Status

Altitude 475.0 km
Apogee / Perigee N/A
Velocity 7.63 km/s
Sub-Earth Point 46.11°N, 77.02°W
Launch Date Jul 28, 2024
Age 2 years
Type internet

Technical Details

Classification Payload
Mass 730.00 kg
Dry Mass 700.00 kg
Total Mass 730.00 kg
Length 0.30 m
Diameter 4.10 m
Span 29.00 m
Shape Box + pan
Manufacturer SPXS
Bus Type Starlink V2M
Phase Status In Orbit
Owner/State SPXS/US

Most Searched